Temperature
17 18 18 18 15 12 14 15 15 16 18 20 21 21 20 20 20 21 21 21 21 21 19 18 18 18 18 18 18 17 16 15 15 14 14 14 15 15 15 15 14 13 13 13 13 13 13 13 14
17 17 18 17 13 13 13 14 15 17 19 20 21 21 21 21 21 21 21 20 20 20 19 19 18 18 18 19 18 17 16 15 14 14 14 14 15 15 15 15 14 13 13 13 13 13 14 14 14
17 17 17 13 12 13 15 16 15 17 19 20 21 21 21 21 22 22 21 21 20 20 20 19 19 19 19 19 19 18 16 15 14 14 14 15 15 15 16 15 15 15 15 14 14 14 14 14 14
16 16 15 12 13 13 14 16 16 16 19 20 20 20 21 21 22 21 21 20 20 20 19 19 19 19 19 19 19 18 16 15 14 14 14 15 15 15 15 15 15 15 15 15 14 14 14 14 14
16 16 12 12 12 13 13 15 16 16 17 19 20 19 21 21 22 22 21 20 20 19 19 19 19 19 19 19 19 18 16 15 15 15 15 15 15 15 16 15 15 15 15 14 14 14 14 14 14
15 12 11 11 13 13 13 16 17 17 17 19 20 19 21 22 22 22 21 20 19 19 18 18 19 19 19 19 19 18 17 16 15 15 15 15 15 15 15 15 15 15 14 14 13 13 14 14 14
13 10 11 12 13 13 14 16 17 17 17 19 20 19 21 22 21 21 21 19 19 18 18 18 19 19 19 19 19 18 17 16 16 16 15 15 15 15 15 15 15 14 14 13 13 13 14 14 14
14 10 11 11 12 13 15 17 18 18 18 19 20 19 21 21 21 21 20 19 18 18 18 18 19 19 19 19 19 18 18 17 16 16 15 15 14 14 14 14 14 14 13 13 13 13 13 14 14
13 10 10 11 12 14 15 16 18 18 18 19 19 20 20 21 20 20 19 18 17 17 17 18 18 18 19 19 18 18 18 17 16 16 15 14 14 14 14 14 14 14 14 13 13 13 13 13 13
12 9 10 12 12 14 15 16 17 17 17 18 19 19 20 20 20 20 19 19 18 18 18 17 18 18 18 18 18 18 18 18 17 16 15 14 14 14 14 13 13 13 13 14 14 13 13 13 13
10 10 11 13 14 15 15 15 16 16 16 17 18 17 18 18 19 19 20 20 20 19 18 18 17 17 17 17 17 17 18 18 17 16 15 14 14 14 14 13 13 13 13 14 14 13 13 13 13
10 11 12 13 15 15 15 15 15 16 17 17 17 17 17 17 17 18 19 19 19 19 19 18 17 17 17 17 17 17 17 17 18 17 16 15 14 14 14 13 13 13 13 13 13 13 13 13 13
10 12 13 14 14 14 14 14 14 15 16 17 17 17 17 17 17 17 17 17 18 18 18 18 18 17 17 16 16 16 16 16 17 17 17 16 15 14 14 13 13 13 13 13 13 13 13 13 13
11 12 13 13 13 14 13 13 13 14 16 16 16 17 17 17 17 17 17 17 17 18 18 18 18 17 17 17 16 16 16 16 16 16 16 16 15 14 14 13 13 13 13 13 12 12 12 12 13
12 11 12 12 13 13 13 12 11 15 16 16 16 16 17 17 18 18 18 17 17 17 17 17 17 17 17 17 17 17 16 16 16 16 16 15 15 15 14 13 13 13 13 12 12 12 12 12 12
11 11 10 11 12 13 12 11 12 15 15 15 15 16 16 17 17 18 18 18 18 17 17 17 17 17 17 17 17 17 17 16 16 16 15 15 15 14 14 13 13 13 12 12 12 12 12 12 12
10 9 9 11 12 12 11 10 11 13 13 13 14 15 15 16 16 17 17 18 18 18 18 17 17 17 17 17 17 17 17 16 16 16 15 15 14 14 14 13 13 12 12 12 12 12 12 12 12
8 9 9 10 11 11 10 9 10 13 12 12 14 15 15 16 16 17 17 17 17 17 17 17 17 17 17 17 17 17 16 16 16 16 15 15 15 14 13 13 13 12 12 12 11 11 11 12 12
8 8 9 9 10 10 9 9 10 11 11 11 13 15 15 16 17 17 17 17 17 17 17 17 17 17 17 17 17 17 16 16 16 16 16 15 15 14 13 13 13 12 12 12 11 11 11 11 12
9 9 9 9 9 10 8 8 9 9 10 12 13 14 14 15 16 16 16 16 17 17 17 17 17 17 17 17 17 17 17 17 17 17 16 16 15 14 14 13 13 12 12 12 11 11 11 11 12
9 9 9 9 9 8 7 9 9 9 9 10 11 11 12 13 14 15 16 16 16 16 17 17 16 16 17 17 16 16 16 16 16 16 16 16 15 15 15 14 14 13 12 12 12 11 11 12 12
9 9 9 9 8 7 7 7 8 8 7 8 10 11 12 13 14 15 15 16 16 16 16 16 16 16 16 16 16 16 16 15 16 16 16 16 16 15 15 15 14 13 13 12 12 11 11 12 12
8 8 7 7 7 6 6 7 8 7 8 9 8 10 11 12 13 14 14 15 15 15 15 15 16 16 16 16 16 16 16 16 16 15 15 15 16 15 15 15 15 14 13 12 12 11 11 12 12
7 6 5 4 5 6 6 5 7 7 8 7 7 10 11 12 13 13 13 14 14 14 14 15 15 15 15 15 15 15 15 15 15 15 15 15 15 15 15 15 15 14 14 13 12 11 11 11 11
7 7 6 6 5 5 5 5 6 7 7 7 7 9 11 12 12 12 12 13 13 13 13 14 14 14 15 15 15 15 15 15 15 15 15 15 15 15 15 15 15 14 14 13 12 11 11 11 11
7 7 6 7 7 5 5 4 6 6 7 8 9 10 11 12 12 12 11 11 12 12 12 12 13 13 14 14 14 14 14 14 14 14 14 14 15 15 15 15 15 14 14 12 11 11 10 10 10
6 5 6 4 4 4 5 4 5 8 8 8 9 10 11 11 11 11 11 11 11 11 11 11 12 12 13 13 13 13 14 14 14 14 14 14 14 14 14 14 14 14 13 12 11 10 9 9 9
6 4 3 4 5 7 6 5 6 8 9 8 7 9 10 11 10 10 10 10 10 10 10 10 11 11 11 12 12 12 13 13 13 13 13 13 13 13 13 14 14 13 12 11 10 9 8 8 8
5 5 3 3 4 5 6 7 7 7 8 7 7 9 10 10 9 9 9 9 9 9 9 10 10 10 11 11 11 12 12 12 12 12 12 12 12 12 12 12 13 12 11 10 9 8 7 7 6
6 5 3 4 3 3 3 6 7 7 7 7 8 9 9 9 8 8 8 8 8 8 8 8 9 9 10 10 10 11 11 12 12 12 11 11 11 10 10 10 10 10 10 9 8 7 6 6 5
Wind_Speed
7 6 3 4 5 4 4 6 4 5 4 3 2 3 7 6 5 3 1 9 10 11 15 18 18 16 15 15 14 14 15 16 16 17 16 14 12 11 10 10 10 9 9 11 13 13 12 11 10
3 4 5 5 5 1 6 6 6 5 5 6 2 1 2 2 2 4 5 8 12 13 15 17 18 16 15 15 14 14 14 15 16 16 16 14 13 12 11 11 11 11 10 11 12 11 10 10 10
3 5 5 5 5 7 6 6 5 6 7 3 2 2 2 1 4 7 6 10 11 11 14 17 18 16 15 15 15 14 14 15 16 16 15 14 13 13 12 12 12 11 11 10 10 9 9 9 9
4 5 5 4 8 8 7 4 2 9 8 5 2 3 2 2 3 6 9 12 12 9 14 18 19 16 15 15 15 15 15 16 16 16 15 15 14 13 13 12 11 10 10 9 9 8 8 8 9
4 5 3 3 9 7 6 5 3 5 7 5 3 3 3 4 4 9 14 14 13 10 13 17 18 16 16 16 15 15 15 16 16 16 15 14 14 13 12 11 10 8 8 8 8 7 7 8 8
5 5 5 8 11 6 5 4 3 4 5 5 2 3 3 2 5 10 14 14 12 11 11 16 18 17 16 16 15 14 14 15 15 16 15 14 13 12 12 11 9 7 6 6 6 7 7 8 9
6 6 7 8 8 7 6 5 4 4 6 6 4 4 5 1 5 10 12 12 11 10 9 11 15 16 16 16 15 15 14 14 14 15 15 14 13 13 12 10 9 6 5 5 6 7 8 9 9
6 6 7 6 6 7 3 4 4 5 7 3 5 7 7 4 9 11 11 10 10 9 8 9 13 14 15 15 15 15 15 14 13 13 13 12 12 13 12 11 9 6 5 5 6 7 9 9 10
5 5 7 8 8 5 3 3 2 1 4 4 3 4 4 8 13 13 10 9 11 11 8 7 8 11 13 14 15 15 15 14 13 11 11 9 8 10 12 11 9 7 6 5 6 8 9 10 11
5 6 9 6 7 5 1 1 2 3 4 3 2 4 4 10 14 15 14 15 15 15 13 8 8 9 11 12 13 13 13 13 12 11 9 7 7 8 11 12 10 8 7 6 7 9 9 9 10
7 8 6 6 5 4 1 1 2 1 3 2 1 4 3 5 10 13 14 15 15 14 14 13 11 10 10 8 10 10 11 12 12 13 12 9 7 8 10 10 8 8 8 8 9 10 9 9 9
6 5 5 5 4 4 3 2 2 4 7 2 1 1 2 2 5 8 10 11 10 11 13 12 12 10 10 9 8 9 9 9 10 13 14 11 7 7 8 8 8 8 8 7 7 8 9 9 8
5 4 4 2 1 1 2 5 5 7 9 6 5 3 2 3 4 4 5 6 8 11 12 12 12 13 10 8 7 9 9 10 12 13 14 14 9 6 7 7 8 8 8 8 8 8 8 7 7
7 5 2 1 2 2 5 7 5 9 8 7 6 8 7 7 7 6 6 7 9 12 13 12 14 14 12 12 10 8 10 12 13 13 14 15 12 10 8 7 7 8 9 9 9 8 7 6 6
6 5 3 4 4 4 3 8 8 10 9 9 10 10 10 10 9 9 10 9 10 11 12 14 15 15 16 15 12 10 11 12 11 13 15 16 15 13 10 7 6 9 12 12 11 9 7 5 5
6 5 3 4 4 5 5 11 5 8 8 11 11 10 10 10 11 11 11 10 10 10 10 14 14 15 17 16 13 9 11 12 11 13 14 16 17 16 12 8 7 12 13 11 6 4 5 4 4
4 5 5 4 2 2 6 8 6 4 5 10 11 11 10 10 10 11 11 10 10 11 11 12 13 15 17 17 14 11 10 11 11 13 13 16 18 18 14 9 9 14 10 7 6 3 3 4 4
7 5 5 6 2 1 5 8 12 8 7 9 11 11 11 11 13 10 10 10 10 10 10 11 11 14 15 14 11 10 10 10 10 11 13 16 17 18 15 9 11 13 8 6 5 5 3 4 5
8 7 4 4 3 4 7 9 14 11 9 11 12 12 13 14 12 9 9 9 9 8 10 11 11 12 10 9 12 13 14 13 12 12 14 17 17 18 15 9 10 10 10 10 9 6 5 3 3
7 5 2 3 4 3 7 11 12 11 9 10 11 11 12 12 12 9 8 8 8 8 9 9 11 11 11 11 11 9 10 10 12 10 10 15 16 18 16 13 12 11 9 10 9 7 5 3 3
4 4 3 2 4 4 7 9 8 7 4 6 7 8 9 11 13 11 9 8 7 8 9 8 10 10 11 12 8 4 4 3 6 8 10 11 16 17 15 14 12 13 12 12 11 9 9 6 3
4 3 4 3 2 4 5 6 9 7 9 7 8 8 9 10 9 9 9 8 7 7 6 7 7 8 9 9 9 11 12 12 12 11 12 11 14 15 16 15 14 14 12 13 13 10 6 7 5
5 5 5 4 3 2 1 2 10 5 6 7 9 10 10 9 7 7 7 7 6 5 4 4 5 7 7 8 11 13 14 12 9 8 10 11 11 12 13 14 12 14 12 13 13 11 8 6 6
8 6 6 5 3 3 3 5 8 4 4 8 10 11 11 10 9 8 8 8 7 7 6 4 3 5 6 7 9 12 15 13 10 11 12 11 8 9 11 12 12 12 11 13 13 12 11 7 7
4 5 3 4 3 5 2 3 9 6 6 7 10 11 10 9 9 10 11 11 10 9 8 7 6 6 6 6 8 11 13 13 14 14 14 12 9 10 14 14 13 12 11 11 10 10 10 9 10
4 6 5 4 3 4 2 6 8 7 8 7 6 6 8 9 9 10 10 9 9 10 9 8 8 8 7 6 7 8 9 9 9 11 11 13 13 14 14 14 13 12 12 12 11 9 8 7 8
6 4 3 6 2 3 5 7 9 5 4 5 7 8 10 10 11 11 11 10 10 10 10 9 8 9 8 8 8 8 8 9 10 11 10 10 8 8 11 12 13 12 12 13 13 9 9 9 8
5 7 5 5 4 3 6 5 5 6 5 8 10 10 11 12 12 12 11 11 10 10 10 9 8 8 8 8 7 7 7 8 8 8 10 10 8 9 12 13 13 13 13 13 11 11 10 10 7
5 4 5 4 3 4 4 6 6 6 4 7 10 11 12 12 12 12 12 12 12 11 10 9 9 8 8 7 7 7 7 6 6 7 8 8 8 10 12 12 13 13 13 13 12 11 12 11 9
4 6 6 5 4 3 2 8 6 6 7 7 10 12 10 10 10 11 12 12 12 11 9 9 8 8 8 7 7 7 5 5 6 6 7 8 9 9 11 11 11 12 12 12 13 13 11 11 9
Wind_Direction
1 1 61 56 52 47 258 253 246 274 261 262 247 185 161 163 175 210 104 140 134 144 156 155 157 156 155 152 150 150 150 149 145 140 134 130 124 120 118 115 113 112 104 89 85 83 80 79 81
12 23 57 63 95 233 261 249 247 250 279 317 334 82 151 169 147 129 141 162 145 148 154 155 157 156 155 154 153 155 155 152 147 142 137 132 127 125 122 117 111 105 97 86 81 82 83 83 85
66 48 83 89 151 196 235 234 235 293 294 286 324 314 221 182 158 173 179 157 145 147 152 156 156 156 155 155 155 158 159 155 149 144 139 136 133 130 126 118 111 106 103 100 98 97 94 89 87
83 57 61 119 221 220 222 238 286 330 343 352 347 301 278 344 182 170 145 150 145 141 149 156 155 157 156 155 157 160 161 155 151 147 145 142 138 134 129 123 119 116 115 114 112 105 94 83 78
64 92 113 211 237 238 237 256 284 327 314 327 338 264 258 356 82 128 141 151 149 143 148 157 157 159 158 158 159 158 158 155 154 153 152 149 144 139 135 133 129 126 122 118 116 106 90 74 68
75 94 147 215 238 250 254 245 284 286 286 298 251 238 266 44 118 141 147 152 151 148 150 159 161 162 162 162 161 160 162 161 162 162 161 158 153 148 144 143 139 135 130 127 119 105 86 73 67
124 133 180 205 238 254 249 209 217 248 274 267 208 210 281 181 150 145 145 146 148 150 152 160 163 164 165 166 166 166 167 169 171 172 171 168 163 158 155 153 152 148 138 126 114 101 86 74 68
139 135 174 203 216 247 245 201 209 202 253 261 178 186 241 210 145 138 140 144 152 157 162 166 166 166 167 170 172 173 172 175 178 180 178 174 172 170 165 164 165 161 137 115 109 103 90 74 74
110 128 190 199 195 232 232 212 240 280 270 294 220 228 277 129 141 144 149 161 172 177 179 174 168 169 168 171 177 178 178 180 182 182 177 174 178 180 175 172 173 164 139 122 115 106 93 80 77
138 177 204 198 188 183 167 194 298 3 330 309 337 5 46 135 157 165 172 179 186 191 191 187 179 174 172 177 178 179 180 181 180 178 174 177 185 185 175 175 174 161 138 119 112 101 93 90 84
171 189 197 213 197 177 151 283 318 18 292 259 338 348 58 150 171 181 187 192 195 194 196 196 193 185 181 180 175 179 180 181 181 180 179 176 170 165 160 159 159 139 121 105 100 93 94 92 91
173 206 193 206 191 176 184 230 262 214 232 224 281 359 68 162 206 207 205 207 204 201 203 200 199 195 192 187 184 183 184 185 186 186 182 171 162 158 155 152 147 138 132 124 115 107 101 93 93
179 192 195 224 277 226 214 233 245 247 251 265 281 282 230 224 248 256 241 225 215 216 213 205 201 203 198 194 192 192 194 195 195 191 186 178 170 169 167 161 153 147 144 138 129 119 108 98 94
192 202 250 248 230 232 232 251 232 256 262 267 252 255 255 241 230 235 241 228 215 219 218 210 208 207 203 203 202 200 200 200 198 197 191 185 179 175 173 170 161 154 152 146 139 130 118 105 102
146 159 249 251 213 231 233 268 225 241 253 262 257 252 256 254 245 233 228 225 219 218 218 213 212 210 209 209 207 205 203 201 203 202 195 190 185 181 179 176 169 161 153 141 129 118 110 104 98
112 135 206 260 207 212 201 261 240 244 246 259 263 261 255 254 249 246 241 232 227 222 219 217 214 211 212 212 208 208 204 203 207 202 197 194 190 185 180 177 171 162 153 144 133 124 103 99 104
130 165 200 268 251 219 211 261 268 280 247 259 268 271 268 267 259 250 247 241 233 224 223 221 216 211 211 212 210 208 204 205 206 201 200 197 192 187 181 178 168 159 152 148 144 125 129 127 123
174 170 185 225 295 303 254 267 281 279 263 261 268 273 274 269 261 249 245 244 241 231 226 226 222 218 212 210 210 210 208 209 205 205 205 196 193 186 179 170 164 160 154 154 146 130 108 118 130
150 149 181 242 311 312 275 278 282 279 265 260 262 264 268 271 267 249 240 244 246 237 225 225 224 222 210 202 206 211 215 214 210 209 205 197 190 183 177 169 166 168 169 167 151 129 122 125 149
121 129 179 290 339 319 300 283 270 265 247 243 254 265 274 281 289 277 255 245 236 234 225 221 223 223 213 208 206 208 211 214 212 207 200 195 186 183 182 173 175 175 165 159 161 146 136 139 172
144 159 186 251 338 19 333 302 292 292 300 300 291 289 291 283 286 291 288 272 258 246 235 225 220 223 220 213 202 186 182 186 198 203 203 193 187 186 185 179 174 175 172 176 176 165 151 151 175
184 184 151 126 47 322 16 315 293 300 324 326 328 326 315 307 298 298 301 296 278 261 249 235 229 226 227 218 205 200 206 212 211 210 207 194 188 187 186 180 177 178 179 179 180 175 162 146 154
142 97 93 94 113 328 344 222 284 341 336 336 331 333 333 333 334 331 326 317 314 308 290 264 247 238 233 221 214 212 218 219 209 199 196 193 190 188 185 181 181 182 182 179 176 173 167 156 156
122 85 68 56 70 279 236 192 281 298 284 307 316 327 337 347 1 2 359 360 353 349 341 326 291 262 248 232 222 219 221 216 202 197 199 195 188 188 188 184 185 183 182 180 177 174 172 163 154
107 104 36 350 2 251 192 217 256 270 267 276 296 312 328 349 3 2 357 350 342 336 332 329 322 302 283 257 237 227 227 219 212 207 205 196 189 193 194 189 187 185 180 174 167 168 169 162 157
157 146 169 208 244 290 229 241 259 273 282 282 295 312 340 354 355 350 340 331 322 318 317 319 316 305 298 281 261 244 232 221 217 210 205 202 203 201 191 185 183 178 170 168 162 159 156 151 147
121 118 128 119 113 291 277 281 301 306 2 4 355 352 347 339 335 329 323 317 309 303 298 297 297 297 296 289 276 260 236 220 215 208 204 203 202 186 177 176 170 167 165 162 158 154 148 143 136
123 135 107 129 163 271 297 280 265 298 333 344 340 331 323 321 321 319 317 312 304 295 289 287 279 276 281 284 276 267 246 228 216 202 202 196 182 170 166 168 164 160 159 158 151 144 140 134 127
121 109 106 106 144 166 290 282 225 229 278 306 305 303 303 305 310 313 314 312 307 301 294 289 288 286 287 286 280 269 254 229 205 199 194 179 165 160 164 165 161 159 158 155 147 141 138 131 124
153 159 148 151 191 174 206 271 268 241 268 282 290 295 300 310 314 313 313 315 315 311 308 303 300 297 292 291 285 271 250 213 195 186 168 154 151 151 152 151 153 153 151 148 141 135 128 124 123
Height
1519 1519 1521 1522 1526 1537 1536 1527 1520 1515 1511 1509 1507 1507 1507 1509 1513 1515 1509 1508 1511 1514 1516 1519 1522 1524 1527 1529 1531 1533 1535 1536 1538 1539 1540 1541 1541 1541 1541 1540 1540 1541 1543 1545 1545 1546 1547 1548 1548
1517 1519 1521 1522 1533 1542 1536 1524 1518 1513 1510 1508 1507 1506 1506 1506 1507 1508 1507 1509 1512 1515 1517 1519 1522 1524 1527 1529 1531 1533 1535 1536 1538 1539 1540 1541 1541 1541 1541 1541 1541 1542 1543 1545 1546 1547 1548 1549 1549
1516 1518 1520 1524 1533 1537 1527 1517 1515 1511 1509 1508 1508 1507 1507 1506 1507 1508 1509 1510 1513 1515 1517 1520 1522 1525 1527 1529 1531 1533 1534 1536 1538 1540 1541 1541 1542 1542 1542 1543 1543 1544 1545 1546 1548 1549 1549 1550 1550
1515 1518 1520 1527 1529 1524 1518 1513 1513 1511 1509 1509 1509 1508 1507 1507 1508 1509 1510 1511 1513 1515 1518 1520 1523 1525 1527 1529 1531 1533 1534 1536 1538 1540 1541 1542 1543 1543 1544 1545 1545 1546 1547 1548 1549 1550 1551 1551 1551
1513 1515 1523 1528 1524 1517 1513 1511 1512 1512 1511 1510 1511 1508 1507 1508 1508 1509 1510 1511 1513 1515 1518 1521 1523 1526 1528 1530 1532 1533 1535 1536 1538 1540 1541 1543 1544 1544 1545 1546 1547 1548 1548 1550 1551 1551 1552 1552 1552
1511 1514 1527 1528 1519 1513 1511 1510 1511 1511 1510 1510 1510 1509 1507 1507 1508 1510 1511 1512 1514 1516 1518 1521 1524 1526 1528 1530 1532 1533 1535 1536 1538 1540 1542 1543 1544 1545 1546 1547 1548 1549 1550 1551 1552 1553 1553 1553 1553
1508 1514 1521 1520 1516 1514 1510 1508 1509 1509 1509 1509 1510 1509 1507 1507 1508 1510 1511 1513 1514 1516 1518 1521 1523 1526 1528 1530 1532 1533 1535 1536 1538 1540 1542 1544 1545 1546 1548 1548 1549 1550 1551 1552 1553 1553 1554 1554 1554
1504 1511 1516 1517 1515 1511 1507 1506 1506 1507 1507 1507 1508 1507 1506 1507 1507 1509 1511 1513 1514 1516 1518 1521 1523 1526 1528 1530 1532 1533 1535 1536 1538 1540 1542 1544 1545 1547 1548 1549 1550 1551 1552 1553 1553 1554 1554 1554 1554
1502 1511 1514 1512 1511 1508 1505 1505 1505 1505 1505 1505 1506 1506 1506 1506 1507 1508 1510 1512 1514 1516 1518 1520 1523 1525 1527 1529 1531 1533 1534 1536 1537 1539 1541 1543 1545 1547 1548 1549 1550 1551 1552 1553 1553 1553 1554 1554 1555
1500 1507 1506 1503 1503 1504 1504 1504 1504 1504 1504 1504 1505 1504 1504 1505 1506 1507 1508 1510 1512 1514 1516 1519 1521 1524 1526 1528 1529 1531 1533 1535 1536 1538 1540 1542 1544 1546 1548 1549 1550 1551 1551 1552 1553 1553 1554 1554 1554
1497 1500 1499 1499 1500 1501 1502 1503 1503 1504 1504 1504 1504 1504 1503 1504 1505 1506 1508 1509 1511 1513 1515 1517 1520 1522 1524 1526 1527 1529 1531 1533 1535 1536 1538 1540 1542 1544 1546 1548 1549 1550 1550 1551 1552 1553 1553 1553 1553
1496 1496 1496 1497 1498 1499 1500 1502 1502 1502 1503 1504 1504 1505 1505 1505 1505 1506 1507 1509 1511 1512 1514 1516 1518 1520 1522 1524 1525 1527 1529 1531 1532 1534 1536 1538 1540 1542 1544 1546 1547 1548 1549 1550 1551 1552 1552 1552 1552
1493 1494 1495 1496 1496 1497 1498 1499 1500 1499 1500 1502 1503 1504 1505 1505 1506 1506 1507 1508 1510 1511 1513 1514 1516 1518 1520 1522 1523 1525 1526 1528 1530 1532 1533 1535 1537 1539 1541 1543 1545 1546 1547 1549 1550 1550 1551 1551 1551
1491 1493 1493 1494 1495 1496 1497 1496 1498 1495 1497 1498 1499 1500 1502 1503 1505 1505 1506 1507 1508 1509 1510 1512 1514 1515 1517 1519 1520 1522 1524 1526 1527 1529 1530 1531 1533 1536 1538 1540 1542 1544 1545 1546 1548 1549 1549 1549 1549
1489 1492 1494 1493 1494 1494 1495 1495 1494 1493 1494 1494 1495 1496 1497 1498 1500 1501 1503 1504 1505 1506 1508 1509 1510 1512 1513 1515 1517 1519 1521 1523 1524 1525 1527 1528 1530 1532 1534 1537 1539 1541 1542 1544 1545 1546 1547 1547 1547
1489 1494 1497 1493 1492 1491 1497 1494 1491 1490 1490 1489 1489 1490 1491 1492 1494 1495 1497 1499 1500 1502 1503 1505 1506 1508 1509 1510 1512 1515 1517 1519 1520 1522 1523 1524 1526 1528 1530 1532 1535 1537 1539 1541 1543 1544 1544 1544 1544
1492 1498 1497 1494 1490 1490 1493 1491 1487 1487 1487 1486 1485 1484 1484 1485 1487 1489 1491 1492 1494 1496 1497 1499 1501 1502 1504 1505 1507 1509 1512 1514 1516 1518 1519 1520 1521 1523 1525 1528 1531 1533 1536 1538 1540 1541 1541 1542 1542
1495 1496 1496 1495 1491 1490 1491 1490 1484 1483 1483 1482 1480 1479 1479 1479 1480 1483 1485 1487 1488 1489 1490 1492 1494 1496 1498 1500 1501 1503 1506 1508 1510 1512 1514 1515 1517 1519 1521 1523 1526 1528 1531 1533 1536 1537 1538 1539 1539
1490 1494 1495 1494 1491 1491 1490 1488 1482 1477 1478 1477 1475 1474 1473 1473 1474 1477 1479 1480 1481 1482 1483 1484 1486 1489 1491 1493 1494 1496 1498 1500 1502 1505 1508 1510 1512 1514 1516 1518 1521 1523 1526 1529 1531 1533 1535 1535 1536
1489 1493 1495 1494 1492 1492 1491 1487 1478 1471 1471 1470 1469 1468 1468 1468 1467 1469 1471 1472 1473 1475 1476 1477 1479 1481 1483 1485 1487 1489 1491 1493 1496 1498 1501 1504 1506 1508 1511 1512 1515 1518 1521 1524 1526 1528 1530 1531 1532
1488 1492 1494 1495 1494 1494 1495 1484 1476 1468 1467 1466 1466 1466 1465 1464 1463 1462 1463 1464 1465 1467 1469 1471 1473 1475 1477 1479 1481 1482 1484 1485 1488 1490 1493 1496 1499 1502 1504 1506 1509 1512 1515 1518 1521 1523 1525 1526 1528
1489 1490 1492 1494 1498 1502 1500 1498 1479 1472 1469 1466 1465 1464 1463 1462 1460 1460 1460 1460 1460 1461 1462 1464 1467 1469 1471 1472 1473 1474 1475 1476 1479 1482 1486 1489 1492 1495 1498 1500 1503 1505 1508 1512 1515 1517 1520 1521 1523
1490 1491 1495 1498 1501 1504 1505 1503 1483 1477 1471 1469 1466 1464 1462 1461 1460 1459 1459 1458 1458 1458 1459 1460 1462 1463 1465 1466 1466 1467 1468 1470 1472 1475 1478 1481 1484 1487 1490 1493 1496 1499 1502 1505 1508 1511 1514 1516 1517
1490 1495 1502 1507 1507 1507 1505 1506 1490 1480 1475 1472 1467 1463 1462 1460 1459 1458 1458 1458 1457 1457 1458 1458 1458 1459 1459 1460 1460 1460 1461 1463 1464 1466 1469 1472 1475 1479 1482 1486 1489 1492 1495 1498 1501 1505 1507 1510 1512
1490 1498 1507 1508 1515 1510 1506 1506 1491 1476 1473 1472 1468 1464 1462 1460 1459 1458 1457 1456 1456 1456 1456 1455 1455 1455 1454 1454 1454 1454 1454 1455 1456 1458 1461 1463 1466 1469 1473 1477 1481 1484 1487 1491 1495 1498 1501 1503 1506
1491 1494 1503 1502 1504 1508 1507 1504 1485 1474 1470 1469 1467 1465 1462 1461 1459 1458 1457 1455 1454 1453 1452 1451 1450 1450 1450 1449 1449 1449 1449 1449 1450 1451 1453 1455 1458 1461 1465 1469 1473 1477 1480 1484 1488 1492 1495 1498 1500
1494 1500 1500 1511 1516 1515 1504 1498 1484 1470 1469 1468 1466 1464 1462 1460 1459 1457 1455 1452 1450 1449 1447 1446 1445 1444 1444 1443 1443 1443 1443 1443 1443 1444 1446 1448 1451 1454 1457 1461 1464 1468 1472 1476 1481 1485 1488 1492 1494
1492 1498 1507 1512 1509 1500 1497 1496 1487 1474 1470 1469 1466 1464 1462 1459 1457 1454 1451 1448 1445 1443 1441 1440 1439 1438 1438 1437 1437 1436 1437 1437 1437 1438 1439 1441 1444 1446 1450 1453 1456 1460 1464 1469 1475 1478 1482 1486 1488
1496 1500 1505 1512 1509 1507 1500 1487 1475 1474 1471 1470 1467 1464 1462 1459 1455 1451 1447 1443 1440 1437 1434 1433 1432 1431 1431 1431 1430 1430 1430 1431 1431 1432 1433 1435 1437 1440 1443 1446 1450 1453 1458 1463 1468 1472 1476 1480 1483
1491 1496 1503 1508 1512 1513 1513 1494 1470 1470 1469 1468 1465 1462 1459 1456 1452 1448 1443 1439 1435 1432 1429 1427 1425 1424 1424 1423 1423 1423 1423 1424 1425 1426 1427 1429 1431 1434 1438 1441 1445 1449 1453 1458 1463 1467 1471 1475 1479